Time,TemperatureF,DewpointF,PressureIn,WindDirection,WindDirectionDegrees,WindSpeedMPH,WindSpeedGustMPH,Humidity,HourlyPrecipIn,Conditions,Clouds,dailyrainin,SoftwareType,DateUTC
2013-07-05 00:02:00,60.0,-99.9,29.72,SSE,164,16.0,21.0,-999,-99.99,,,-99.99,,2013-07-05 07:02:00,
2013-07-05 00:12:00,59.0,-99.9,29.72,SSE,167,19.0,22.0,-999,-99.99,,,-99.99,,2013-07-05 07:12:00,
2013-07-05 00:34:00,59.0,-99.9,29.72,South,171,17.0,24.0,-999,-99.99,,,-99.99,,2013-07-05 07:34:00,
2013-07-05 00:43:00,59.0,-99.9,29.72,SSE,165,19.0,22.0,-999,-99.99,,,-99.99,,2013-07-05 07:43:00,
2013-07-05 00:53:00,59.0,-99.9,29.72,South,172,15.0,19.0,-999,-99.99,,,-99.99,,2013-07-05 07:53:00,
2013-07-05 01:03:00,59.0,-99.9,29.72,South,173,14.0,21.0,-999,-99.99,,,-99.99,,2013-07-05 08:03:00,
2013-07-05 01:23:00,59.0,-99.9,29.72,SSE,157,13.0,19.0,-999,-99.99,,,-99.99,,2013-07-05 08:23:00,
2013-07-05 01:44:00,60.0,-99.9,29.72,SSE,155,13.0,17.0,-999,-99.99,,,-99.99,,2013-07-05 08:44:00,
2013-07-05 01:57:00,60.0,-99.9,29.72,SSE,154,10.0,16.0,-999,-99.99,,,-99.99,,2013-07-05 08:57:00,
2013-07-05 02:09:00,60.0,-99.9,29.72,SSE,159,11.0,17.0,-999,-99.99,,,-99.99,,2013-07-05 09:09:00,
2013-07-05 02:16:00,60.0,-99.9,29.72,SSE,159,11.0,17.0,-999,-99.99,,,-99.99,,2013-07-05 09:16:00,
2013-07-05 02:48:00,59.0,-99.9,29.72,SSE,149,11.0,18.0,-999,-99.99,,,-99.99,,2013-07-05 09:48:00,
2013-07-05 02:57:00,59.0,-99.9,29.72,SSE,149,10.0,17.0,-999,-99.99,,,-99.99,,2013-07-05 09:57:00,
2013-07-05 03:09:00,59.0,-99.9,29.72,SSE,147,11.0,17.0,-999,-99.99,,,-99.99,,2013-07-05 10:09:00,
2013-07-05 03:39:00,59.0,-99.9,29.72,SSE,153,11.0,16.0,-999,-99.99,,,-99.99,,2013-07-05 10:39:00,
2013-07-05 03:58:00,59.0,-99.9,29.72,SSE,155,13.0,16.0,-999,-99.99,,,-99.99,,2013-07-05 10:58:00,
2013-07-05 04:11:00,59.0,-99.9,29.72,SSE,155,11.0,16.0,-999,-99.99,,,-99.99,,2013-07-05 11:11:00,
2013-07-05 04:18:00,59.0,-99.9,29.72,SSE,156,11.0,17.0,-999,-99.99,,,-99.99,,2013-07-05 11:18:00,
2013-07-05 04:38:00,60.0,-99.9,29.72,SSE,148,6.0,11.0,-999,-99.99,,,-99.99,,2013-07-05 11:38:00,
2013-07-05 04:51:00,59.0,-99.9,29.72,SSE,154,6.0,12.0,-999,-99.99,,,-99.99,,2013-07-05 11:51:00,
2013-07-05 05:00:00,59.0,-99.9,29.72,SSE,151,7.0,15.0,-999,-99.99,,,-99.99,,2013-07-05 12:00:00,
2013-07-05 05:11:00,59.0,-99.9,29.72,SSE,151,8.0,12.0,-999,-99.99,,,-99.99,,2013-07-05 12:11:00,
2013-07-05 05:17:00,59.0,-99.9,29.72,SE,145,10.0,14.0,-999,-99.99,,,-99.99,,2013-07-05 12:17:00,
2013-07-05 06:00:00,58.0,-99.9,29.73,SSE,162,8.0,15.0,-999,-99.99,,,-99.99,,2013-07-05 13:00:00,
2013-07-05 06:14:00,58.0,-99.9,29.73,SSE,148,8.0,13.0,-999,-99.99,,,-99.99,,2013-07-05 13:14:00,
2013-07-05 06:39:00,58.0,-99.9,29.73,SSE,151,6.0,13.0,-999,-99.99,,,-99.99,,2013-07-05 13:39:00,
2013-07-05 06:58:00,58.0,-99.9,29.74,SE,146,8.0,13.0,-999,-99.99,,,-99.99,,2013-07-05 13:58:00,
2013-07-05 07:09:00,58.0,-99.9,29.74,SE,145,8.0,14.0,-999,-99.99,,,-99.99,,2013-07-05 14:09:00,
2013-07-05 07:40:00,59.0,-99.9,29.74,SE,135,4.0,11.0,-999,-99.99,,,-99.99,,2013-07-05 14:40:00,
2013-07-05 07:48:00,60.0,-99.9,29.75,SSE,151,6.0,10.0,-999,-99.99,,,-99.99,,2013-07-05 14:48:00,
2013-07-05 07:58:00,60.0,-99.9,29.75,SE,145,5.0,10.0,-999,-99.99,,,-99.99,,2013-07-05 14:58:00,
2013-07-05 08:18:00,60.0,-99.9,29.76,SSE,150,5.0,9.0,-999,-99.99,,,-99.99,,2013-07-05 15:18:00,
2013-07-05 08:26:00,60.0,-99.9,29.76,SSE,150,5.0,9.0,-999,-99.99,,,-99.99,,2013-07-05 15:26:00,
2013-07-05 08:34:00,60.0,-99.9,29.76,SE,142,4.0,9.0,-999,-99.99,,,-99.99,,2013-07-05 15:34:00,
2013-07-05 08:43:00,60.0,-99.9,29.77,SE,145,6.0,9.0,-999,-99.99,,,-99.99,,2013-07-05 15:43:00,
2013-07-05 08:53:00,60.0,-99.9,29.77,SE,144,5.0,8.0,-999,-99.99,,,-99.99,,2013-07-05 15:53:00,
2013-07-05 09:02:00,60.0,-99.9,29.78,SSE,150,6.0,9.0,-999,-99.99,,,-99.99,,2013-07-05 16:02:00,
2013-07-05 09:11:00,60.0,-99.9,29.78,SE,141,5.0,9.0,-999,-99.99,,,-99.99,,2013-07-05 16:11:00,
2013-07-05 09:22:00,60.0,-99.9,29.78,SE,139,4.0,8.0,-999,-99.99,,,-99.99,,2013-07-05 16:22:00,
2013-07-05 09:33:00,60.0,-99.9,29.78,SE,138,3.0,10.0,-999,-99.99,,,-99.99,,2013-07-05 16:33:00,
2013-07-05 09:44:00,61.0,-99.9,29.78,SE,141,4.0,7.0,-999,-99.99,,,-99.99,,2013-07-05 16:44:00,
2013-07-05 09:53:00,61.0,-99.9,29.78,SE,146,5.0,8.0,-999,-99.99,,,-99.99,,2013-07-05 16:53:00,
2013-07-05 10:02:00,61.0,-99.9,29.78,SE,146,5.0,11.0,-999,-99.99,,,-99.99,,2013-07-05 17:02:00,
2013-07-05 10:22:00,61.0,-99.9,29.78,SSE,149,5.0,8.0,-999,-99.99,,,-99.99,,2013-07-05 17:22:00,
2013-07-05 10:33:00,61.0,-99.9,29.77,SSE,149,6.0,9.0,-999,-99.99,,,-99.99,,2013-07-05 17:33:00,
2013-07-05 10:53:00,60.0,-99.9,29.77,South,169,10.0,13.0,-999,-99.99,,,-99.99,,2013-07-05 17:53:00,
2013-07-05 11:02:00,59.0,-99.9,29.77,SSE,160,15.0,20.0,-999,-99.99,,,-99.99,,2013-07-05 18:02:00,
2013-07-05 11:11:00,59.0,-99.9,29.77,SSE,160,14.0,19.0,-999,-99.99,,,-99.99,,2013-07-05 18:11:00,
2013-07-05 11:22:00,59.0,-99.9,29.77,SSE,160,14.0,19.0,-999,-99.99,,,-99.99,,2013-07-05 18:22:00,
2013-07-05 11:33:00,58.0,-99.9,29.77,SSE,166,15.0,19.0,-999,-99.99,,,-99.99,,2013-07-05 18:33:00,
2013-07-05 11:53:00,58.0,-99.9,29.77,SSE,163,16.0,20.0,-999,-99.99,,,-99.99,,2013-07-05 18:53:00,
2013-07-05 12:02:00,58.0,-99.9,29.78,South,169,18.0,22.0,-999,-99.99,,,-99.99,,2013-07-05 19:02:00,
2013-07-05 12:22:00,58.0,-99.9,29.78,South,169,19.0,23.0,-999,-99.99,,,-99.99,,2013-07-05 19:22:00,
2013-07-05 14:43:00,58.0,-99.9,29.78,South,176,14.0,19.0,-999,-99.99,,,-99.99,,2013-07-05 21:43:00,
2013-07-05 14:53:00,58.0,-99.9,29.78,South,179,15.0,20.0,-999,-99.99,,,-99.99,,2013-07-05 21:53:00,
2013-07-05 15:22:00,58.0,-99.9,29.78,South,171,14.0,18.0,-999,-99.99,,,-99.99,,2013-07-05 22:22:00,
2013-07-05 16:23:00,58.0,-99.9,29.76,South,169,16.0,21.0,-999,-99.99,,,-99.99,,2013-07-05 23:23:00,
2013-07-05 16:32:00,59.0,-99.9,29.75,South,171,14.0,19.0,-999,-99.99,,,-99.99,,2013-07-05 23:32:00,
2013-07-05 16:43:00,60.0,-99.9,29.75,South,174,12.0,17.0,-999,-99.99,,,-99.99,,2013-07-05 23:43:00,
2013-07-05 16:53:00,60.0,-99.9,29.75,South,172,12.0,17.0,-999,-99.99,,,-99.99,,2013-07-05 23:53:00,
2013-07-05 17:02:00,60.0,-99.9,29.75,South,173,12.0,17.0,-999,-99.99,,,-99.99,,2013-07-06 00:02:00,
2013-07-05 17:22:00,60.0,-99.9,29.74,South,176,13.0,19.0,-999,-99.99,,,-99.99,,2013-07-06 00:22:00,
2013-07-05 17:43:00,60.0,-99.9,29.74,South,179,12.0,18.0,-999,-99.99,,,-99.99,,2013-07-06 00:43:00,
2013-07-05 17:53:00,60.0,-99.9,29.74,South,183,13.0,19.0,-999,-99.99,,,-99.99,,2013-07-06 00:53:00,
2013-07-05 18:02:00,60.0,-99.9,29.74,South,181,13.0,18.0,-999,-99.99,,,-99.99,,2013-07-06 01:02:00,
2013-07-05 18:12:00,60.0,-99.9,29.73,South,181,14.0,20.0,-999,-99.99,,,-99.99,,2013-07-06 01:12:00,
2013-07-05 18:33:00,61.0,-99.9,29.73,South,183,11.0,15.0,-999,-99.99,,,-99.99,,2013-07-06 01:33:00,
2013-07-05 18:43:00,61.0,-99.9,29.73,South,183,11.0,15.0,-999,-99.99,,,-99.99,,2013-07-06 01:43:00,
2013-07-05 19:02:00,61.0,-99.9,29.72,South,180,11.0,15.0,-999,-99.99,,,-99.99,,2013-07-06 02:02:00,
2013-07-05 19:34:00,60.0,-99.9,29.73,South,186,11.0,15.0,-999,-99.99,,,-99.99,,2013-07-06 02:34:00,
2013-07-05 19:43:00,59.0,-99.9,29.73,South,184,11.0,17.0,-999,-99.99,,,-99.99,,2013-07-06 02:43:00,
2013-07-05 19:53:00,59.0,-99.9,29.73,South,180,10.0,15.0,-999,-99.99,,,-99.99,,2013-07-06 02:53:00,
2013-07-05 20:12:00,59.0,-99.9,29.73,South,177,8.0,12.0,-999,-99.99,,,-99.99,,2013-07-06 03:12:00,
2013-07-05 20:22:00,58.0,-99.9,29.74,South,171,10.0,14.0,-999,-99.99,,,-99.99,,2013-07-06 03:22:00,
2013-07-05 20:34:00,58.0,-99.9,29.74,South,172,11.0,17.0,-999,-99.99,,,-99.99,,2013-07-06 03:34:00,
2013-07-05 20:43:00,58.0,-99.9,29.74,South,172,11.0,17.0,-999,-99.99,,,-99.99,,2013-07-06 03:43:00,
2013-07-05 20:53:00,57.0,-99.9,29.75,SSE,168,14.0,33.0,-999,-99.99,,,-99.99,,2013-07-06 03:53:00,
2013-07-05 21:02:00,57.0,-99.9,29.75,SSE,167,15.0,18.0,-999,-99.99,,,-99.99,,2013-07-06 04:02:00,
2013-07-05 21:12:00,57.0,-99.9,29.75,SSE,167,15.0,18.0,-999,-99.99,,,-99.99,,2013-07-06 04:12:00,
2013-07-05 21:33:00,57.0,-99.9,29.75,South,172,12.0,17.0,-999,-99.99,,,-99.99,,2013-07-06 04:33:00,
2013-07-05 21:43:00,57.0,-99.9,29.75,SSE,165,13.0,17.0,-999,-99.99,,,-99.99,,2013-07-06 04:43:00,
2013-07-05 21:53:00,57.0,-99.9,29.76,SSE,167,14.0,18.0,-999,-99.99,,,-99.99,,2013-07-06 04:53:00,
2013-07-05 22:02:00,56.0,-99.9,29.76,SSE,166,13.0,17.0,-999,-99.99,,,-99.99,,2013-07-06 05:02:00,
2013-07-05 22:12:00,56.0,-99.9,29.76,South,170,14.0,18.0,-999,-99.99,,,-99.99,,2013-07-06 05:12:00,
2013-07-05 22:43:00,56.0,-99.9,29.77,South,169,13.0,18.0,-999,-99.99,,,-99.99,,2013-07-06 05:43:00,
2013-07-05 22:53:00,56.0,-99.9,29.77,South,169,13.0,17.0,-999,-99.99,,,-99.99,,2013-07-06 05:53:00,
2013-07-05 23:02:00,56.0,-99.9,29.77,South,169,13.0,22.0,-999,-99.99,,,-99.99,,2013-07-06 06:02:00,
2013-07-05 23:12:00,56.0,-99.9,29.77,South,169,15.0,19.0,-999,-99.99,,,-99.99,,2013-07-06 06:12:00,
2013-07-05 23:22:00,56.0,-99.9,29.77,South,169,15.0,19.0,-999,-99.99,,,-99.99,,2013-07-06 06:22:00,
2013-07-05 23:43:00,56.0,-99.9,29.77,South,174,14.0,20.0,-999,-99.99,,,-99.99,,2013-07-06 06:43:00,
2013-07-05 23:53:00,56.0,-99.9,29.77,SSE,168,15.0,19.0,-999,-99.99,,,-99.99,,2013-07-06 06:53:00,